Brownsville, TX

12:33 AM CDT on July 25, 2017 (GMT -0500)
Brownsville-South Padre I International

Weather History for KBRO - November, 2012

Change the Weather History Date:

Friday, November 9, 2012

  Actual Average Record
Temperature  
Mean Temperature 78 °F 71 °F  
Max Temperature 87 °F 81 °F 89 °F (2005)
Min Temperature 69 °F 61 °F 39 °F (1943)
Degree Days  
Heating Degree Days 0 1  
Month to date heating degree days 0 9  
Since 1 July heating degree days 2 13  
Cooling Degree Days 13 7  
Month to date cooling degree days 102 71  
Year to date cooling degree days 4535 3836  
Growing Degree Days 28 (Base 50)    
Moisture  
Dew Point 62 °F    
Average Humidity 62    
Maximum Humidity 84    
Minimum Humidity 40    
Precipitation  
Precipitation 0.00 in 0.07 in 3.41 in (1928)
Month to date precipitation 0.01 0.69  
Year to date precipitation 20.93 25.16  
Sea Level Pressure  
Sea Level Pressure 30.03 in    
Wind  
Wind Speed 14 mph (SE)    
Max Wind Speed 28 mph    
Max Gust Speed 35 mph    
Visibility 10 miles    
Events      
T = Trace of Precipitation, MM = Missing Value Source: NWS Daily Summary

Daily Weather History Graph

Daily Weather History Graph

Search for Another Location

Airport or City:

Trip Planner

Search our weather history database for the weather conditions in past years. The results will help you decide how hot, cold, wet, or windy it might be!

Date:

Astronomy

Nov. 09, 2012 Rise Set
Actual Time 6:43 AM CST 5:42 PM CST
Civil Twilight 6:19 AM CST 6:07 PM CST
Nautical Twilight 5:52 AM CST 6:34 PM CST
Astronomical Twilight 5:24 AM CST 7:01 PM CST
Moon 2:10 AM CST (11/9) 2:33 PM CST (11/9)
Length of Visible Light 11h 47m
Length of Day
10h 59m
Waning Crescent, 23% of the Moon is Illuminated
Nov 9
Waning Crescent
Nov 13
New
Nov 20
First Quarter
Nov 28
Full
Dec 6
Last Quarter

Hourly Weather History & Observations

Time (CST) Temp. Heat Index Dew Point Humidity Pressure Visibility Wind Dir Wind Speed Gust Speed Precip Events Conditions
12:53 AM 72.0 °F - 63.0 °F 73% 30.06 in 10.0 mi SSE 9.2 mph - N/A   Clear
1:53 AM 72.0 °F - 63.0 °F 73% 30.05 in 10.0 mi SSE 10.4 mph - N/A   Clear
2:53 AM 72.0 °F - 63.0 °F 73% 30.04 in 10.0 mi SE 9.2 mph - N/A   Clear
3:53 AM 72.0 °F - 63.0 °F 73% 30.03 in 10.0 mi SSE 11.5 mph - N/A   Clear
4:53 AM 71.1 °F - 63.0 °F 75% 30.03 in 10.0 mi SSE 9.2 mph - N/A   Clear
5:53 AM 70.0 °F - 64.0 °F 81% 30.04 in 10.0 mi SSE 9.2 mph - N/A   Clear
6:53 AM 70.0 °F - 64.0 °F 81% 30.04 in 10.0 mi SSE 8.1 mph - N/A   Partly Cloudy
7:53 AM 75.0 °F - 64.9 °F 71% 30.06 in 10.0 mi SSE 10.4 mph - N/A   Clear
8:53 AM 81.0 °F 82.5 °F 64.0 °F 56% 30.07 in 10.0 mi SSE 25.3 mph 33.4 mph N/A   Partly Cloudy
9:53 AM 84.0 °F 84.9 °F 63.0 °F 49% 30.08 in 10.0 mi SSE 24.2 mph 32.2 mph N/A   Partly Cloudy
10:53 AM 84.9 °F 85.9 °F 63.0 °F 48% 30.07 in 10.0 mi South 21.9 mph 32.2 mph N/A   Partly Cloudy
11:53 AM 84.9 °F 85.0 °F 61.0 °F 44% 30.05 in 10.0 mi SSE 20.7 mph 34.5 mph N/A   Clear
12:53 PM 86.0 °F 85.7 °F 60.1 °F 41% 30.02 in 10.0 mi SSE 20.7 mph 29.9 mph N/A   Clear
1:53 PM 86.0 °F 85.4 °F 59.0 °F 40% 29.99 in 10.0 mi SSE 21.9 mph 28.8 mph N/A   Clear
2:53 PM 84.0 °F 84.4 °F 61.0 °F 46% 29.98 in 10.0 mi SE 19.6 mph 27.6 mph N/A   Clear
3:53 PM 82.9 °F 83.3 °F 61.0 °F 47% 29.98 in 10.0 mi SE 19.6 mph 27.6 mph N/A   Clear
4:53 PM 80.1 °F 81.5 °F 63.0 °F 56% 29.98 in 10.0 mi SE 17.3 mph - N/A   Clear
5:53 PM 77.0 °F - 62.1 °F 60% 29.99 in 10.0 mi SSE 12.7 mph - N/A   Partly Cloudy
6:53 PM 75.9 °F - 63.0 °F 64% 30.00 in 10.0 mi SE 11.5 mph - N/A   Clear
7:53 PM 73.9 °F - 62.1 °F 66% 30.02 in 10.0 mi SE 9.2 mph - N/A   Clear
8:53 PM 72.0 °F - 62.1 °F 71% 30.04 in 10.0 mi SE 6.9 mph - N/A   Scattered Clouds
9:53 PM 73.0 °F - 63.0 °F 71% 30.04 in 10.0 mi SE 9.2 mph - N/A   Partly Cloudy
10:53 PM 72.0 °F - 62.1 °F 71% 30.04 in 10.0 mi SE 8.1 mph - N/A   Clear
11:53 PM 72.0 °F - 62.1 °F 71% 30.04 in 10.0 mi SE 6.9 mph - N/A   Partly Cloudy